Midori-2

operational
NORAD ID: 27597 Int'l Des: 2002-056 Owner: NASDA Country: J
LEOCIRCULARRETROGRADESSO

关于 Midori-2

正在加载描述...

实时位置

正在加载3D地球...

即将过境

高度历史

Altitude vs Time

uPlot chart will show altitude changes over time

两行轨道根数

1 27597U 02056A 26062.50326727 .00000386 00000-0 16951-3 0 9993
2 27597 98.7759 20.9386 0001812 51.7611 308.3733 14.29279329209419
Epoch: Mar 3, 2026 • Age: 29 hours

当前状态

高度 796.9 km
速度 7.46 km/s
星下点 -3.88°S, 147.35°E
发射日期 Dec 14, 2002
运行时间 23.2 years
类型 other

技术详情

分类 Payload
质量 3680.00 kg
干质量 3500.00 kg
总质量 3680.00 kg
长度 6.00 m
直径 4.00 m
跨度 28.00 m
形状 Irr + Pan
制造商 MELCO
平台类型 ADEOS
阶段状态 In Orbit
所有者/国家 NASDA/J

大型星座

Loading constellations...